Year,Month,Day,Hour,Minute,Value (Times are PST for temperature in C)
2021,04,17,00,00,10.50
2021,04,17,00,01,10.50
2021,04,17,00,02,10.50
2021,04,17,00,03,10.40
2021,04,17,00,04,10.40
2021,04,17,00,05,10.40
2021,04,17,00,06,10.40
2021,04,17,00,07,10.40
2021,04,17,00,08,10.40
2021,04,17,00,09,10.40
2021,04,17,00,10,10.40
2021,04,17,00,11,10.40
2021,04,17,00,12,10.40
2021,04,17,00,13,10.40
2021,04,17,00,14,10.40
2021,04,17,00,15,10.40
2021,04,17,00,16,10.40
2021,04,17,00,17,10.30
2021,04,17,00,18,10.30
2021,04,17,00,19,10.30
2021,04,17,00,20,10.30
2021,04,17,00,21,10.30
2021,04,17,00,22,10.30
2021,04,17,00,23,10.30
2021,04,17,00,24,10.30
2021,04,17,00,25,10.20
2021,04,17,00,26,10.20
2021,04,17,00,27,10.20
2021,04,17,00,28,10.20
2021,04,17,00,29,10.20
2021,04,17,00,30,10.20
2021,04,17,00,31,10.10
2021,04,17,00,32,10.10
2021,04,17,00,33,10.10
2021,04,17,00,34,10.10
2021,04,17,00,35,10.00
2021,04,17,00,36,10.00
2021,04,17,00,37,10.00
2021,04,17,00,38,10.00
2021,04,17,00,39,10.00
2021,04,17,00,40,10.00
2021,04,17,00,41,9.90
2021,04,17,00,42,9.90
2021,04,17,00,43,9.90
2021,04,17,00,44,9.90
2021,04,17,00,45,9.90
2021,04,17,00,46,9.80
2021,04,17,00,47,9.80
2021,04,17,00,48,9.80
2021,04,17,00,49,9.80
2021,04,17,00,50,9.80
2021,04,17,00,51,9.80
2021,04,17,00,52,9.80
2021,04,17,00,53,9.70
2021,04,17,00,54,9.70
2021,04,17,00,55,9.70
2021,04,17,00,56,9.70
2021,04,17,00,57,9.70
2021,04,17,00,58,9.70
2021,04,17,00,59,9.70
2021,04,17,01,00,9.70
2021,04,17,01,01,9.70
2021,04,17,01,02,9.60
2021,04,17,01,03,9.60
2021,04,17,01,04,9.60
2021,04,17,01,05,9.60
2021,04,17,01,06,9.50
2021,04,17,01,07,9.50
2021,04,17,01,08,9.50
2021,04,17,01,09,9.40
2021,04,17,01,10,9.40
2021,04,17,01,11,9.40
2021,04,17,01,12,9.40
2021,04,17,01,13,9.30
2021,04,17,01,14,9.30
2021,04,17,01,15,9.30
2021,04,17,01,16,9.20
2021,04,17,01,17,9.20
2021,04,17,01,18,9.20
2021,04,17,01,19,9.10
2021,04,17,01,20,9.10
2021,04,17,01,21,9.00
2021,04,17,01,22,9.00
2021,04,17,01,23,8.90
2021,04,17,01,24,8.90
2021,04,17,01,25,8.90
2021,04,17,01,26,8.90
2021,04,17,01,27,8.80
2021,04,17,01,28,8.80
2021,04,17,01,29,8.80
2021,04,17,01,30,8.80
2021,04,17,01,31,8.70
2021,04,17,01,32,8.70
2021,04,17,01,33,8.70
2021,04,17,01,34,8.70
2021,04,17,01,35,8.70
2021,04,17,01,36,8.70
2021,04,17,01,37,8.70
2021,04,17,01,38,8.60
2021,04,17,01,39,8.60
2021,04,17,01,40,8.60
2021,04,17,01,41,8.60
2021,04,17,01,42,8.70
2021,04,17,01,43,8.70
2021,04,17,01,44,8.70
2021,04,17,01,45,8.70
2021,04,17,01,46,8.70
2021,04,17,01,47,8.70
2021,04,17,01,48,8.60
2021,04,17,01,49,8.60
2021,04,17,01,50,8.60
2021,04,17,01,51,8.60
2021,04,17,01,52,8.60
2021,04,17,01,53,8.60
2021,04,17,01,54,8.60
2021,04,17,01,55,8.60
2021,04,17,01,56,8.60
2021,04,17,01,57,8.60
2021,04,17,01,58,8.60
2021,04,17,01,59,8.60
2021,04,17,02,00,8.70
2021,04,17,02,01,8.70
2021,04,17,02,02,8.70
2021,04,17,02,03,8.70
2021,04,17,02,04,8.70
2021,04,17,02,05,8.70
2021,04,17,02,06,8.70
2021,04,17,02,07,8.70
2021,04,17,02,08,8.70
2021,04,17,02,09,8.70
2021,04,17,02,10,8.70
2021,04,17,02,11,8.60
2021,04,17,02,12,8.60
2021,04,17,02,13,8.60
2021,04,17,02,14,8.60
2021,04,17,02,15,8.60
2021,04,17,02,16,8.60
2021,04,17,02,17,8.60
2021,04,17,02,18,8.60
2021,04,17,02,19,8.60
2021,04,17,02,20,8.60
2021,04,17,02,21,8.60
2021,04,17,02,22,8.60
2021,04,17,02,23,8.60
2021,04,17,02,24,8.60
2021,04,17,02,25,8.50
2021,04,17,02,26,8.50
2021,04,17,02,27,8.50
2021,04,17,02,28,8.40
2021,04,17,02,29,8.40
2021,04,17,02,30,8.40
2021,04,17,02,31,8.30
2021,04,17,02,32,8.30
2021,04,17,02,33,8.30
2021,04,17,02,34,8.30
2021,04,17,02,35,8.30
2021,04,17,02,36,8.20
2021,04,17,02,37,8.20
2021,04,17,02,38,8.20
2021,04,17,02,39,8.20
2021,04,17,02,40,8.20
2021,04,17,02,41,8.10
2021,04,17,02,42,8.10
2021,04,17,02,43,8.10
2021,04,17,02,44,8.10
2021,04,17,02,45,8.10
2021,04,17,02,46,8.10
2021,04,17,02,47,8.10
2021,04,17,02,48,8.10
2021,04,17,02,49,8.10
2021,04,17,02,50,8.10
2021,04,17,02,51,8.10
2021,04,17,02,52,8.10
2021,04,17,02,53,8.10
2021,04,17,02,54,8.10
2021,04,17,02,55,8.10
2021,04,17,02,56,8.10
2021,04,17,02,57,8.10
2021,04,17,02,58,8.10
2021,04,17,02,59,8.10
2021,04,17,03,00,8.10
2021,04,17,03,01,8.00
2021,04,17,03,02,8.00
2021,04,17,03,03,7.90
2021,04,17,03,04,7.90
2021,04,17,03,05,7.90
2021,04,17,03,06,7.90
2021,04,17,03,07,7.90
2021,04,17,03,08,7.80
2021,04,17,03,09,7.80
2021,04,17,03,10,7.80
2021,04,17,03,11,7.80
2021,04,17,03,12,7.80
2021,04,17,03,13,7.70
2021,04,17,03,14,7.70
2021,04,17,03,15,7.70
2021,04,17,03,16,7.70
2021,04,17,03,17,7.70
2021,04,17,03,18,7.70
2021,04,17,03,19,7.70
2021,04,17,03,20,7.80
2021,04,17,03,21,7.80
2021,04,17,03,22,7.80
2021,04,17,03,23,7.80
2021,04,17,03,24,7.80
2021,04,17,03,25,7.80
2021,04,17,03,26,7.70
2021,04,17,03,27,7.70
2021,04,17,03,28,7.70
2021,04,17,03,29,7.70
2021,04,17,03,30,7.70
2021,04,17,03,31,7.70
2021,04,17,03,32,7.70
2021,04,17,03,33,7.70
2021,04,17,03,34,7.70
2021,04,17,03,35,7.70
2021,04,17,03,36,7.70
2021,04,17,03,37,7.70
2021,04,17,03,38,7.70
2021,04,17,03,39,7.70
2021,04,17,03,40,7.70
2021,04,17,03,41,7.70
2021,04,17,03,42,7.60
2021,04,17,03,43,7.60
2021,04,17,03,44,7.60
2021,04,17,03,45,7.60
2021,04,17,03,46,7.60
2021,04,17,03,47,7.60
2021,04,17,03,48,7.60
2021,04,17,03,49,7.60
2021,04,17,03,50,7.60
2021,04,17,03,51,7.60
2021,04,17,03,52,7.60
2021,04,17,03,53,7.50
2021,04,17,03,54,7.50
2021,04,17,03,55,7.50
2021,04,17,03,56,7.50
2021,04,17,03,57,7.50
2021,04,17,03,58,7.50
2021,04,17,03,59,7.50
2021,04,17,04,00,7.50
2021,04,17,04,01,7.50
2021,04,17,04,02,7.40
2021,04,17,04,03,7.40
2021,04,17,04,04,7.40
2021,04,17,04,05,7.40
2021,04,17,04,06,7.40
2021,04,17,04,07,7.40
2021,04,17,04,08,7.40
2021,04,17,04,09,7.40
2021,04,17,04,10,7.40
2021,04,17,04,11,7.40
2021,04,17,04,12,7.40
2021,04,17,04,13,7.30
2021,04,17,04,14,7.30
2021,04,17,04,15,7.30
2021,04,17,04,16,7.30
2021,04,17,04,17,7.30
2021,04,17,04,18,7.30
2021,04,17,04,19,7.30
2021,04,17,04,20,7.30
2021,04,17,04,21,7.30
2021,04,17,04,22,7.30
2021,04,17,04,23,7.30
2021,04,17,04,24,7.30
2021,04,17,04,25,7.20
2021,04,17,04,26,7.20
2021,04,17,04,27,7.20
2021,04,17,04,28,7.20
2021,04,17,04,29,7.20
2021,04,17,04,30,7.20
2021,04,17,04,31,7.20
2021,04,17,04,32,7.20
2021,04,17,04,33,7.20
2021,04,17,04,34,7.20
2021,04,17,04,35,7.20
2021,04,17,04,36,7.20
2021,04,17,04,37,7.30
2021,04,17,04,38,7.30
2021,04,17,04,39,7.30
2021,04,17,04,40,7.30
2021,04,17,04,41,7.30
2021,04,17,04,42,7.30
2021,04,17,04,43,7.30
2021,04,17,04,44,7.30
2021,04,17,04,45,7.30
2021,04,17,04,46,7.30
2021,04,17,04,47,7.30
2021,04,17,04,48,7.20
2021,04,17,04,49,7.20
2021,04,17,04,50,7.20
2021,04,17,04,51,7.20
2021,04,17,04,52,7.20
2021,04,17,04,53,7.30
2021,04,17,04,54,7.30
2021,04,17,04,55,7.30
2021,04,17,04,56,7.30
2021,04,17,04,57,7.30
2021,04,17,04,58,7.30
2021,04,17,04,59,7.20
2021,04,17,05,00,7.20
2021,04,17,05,01,7.20
2021,04,17,05,02,7.20
2021,04,17,05,03,7.20
2021,04,17,05,04,7.20
2021,04,17,05,05,7.20
2021,04,17,05,06,7.20
2021,04,17,05,07,7.20
2021,04,17,05,08,7.20
2021,04,17,05,09,7.20
2021,04,17,05,10,7.20
2021,04,17,05,11,7.20
2021,04,17,05,12,7.20
2021,04,17,05,13,7.20
2021,04,17,05,14,7.20
2021,04,17,05,15,7.20
2021,04,17,05,16,7.20
2021,04,17,05,17,7.20
2021,04,17,05,18,7.20
2021,04,17,05,19,7.20
2021,04,17,05,20,7.20
2021,04,17,05,21,7.20
2021,04,17,05,22,7.20
2021,04,17,05,23,7.20
2021,04,17,05,24,7.20
2021,04,17,05,25,7.20
2021,04,17,05,26,7.20
2021,04,17,05,27,7.20
2021,04,17,05,28,7.20
2021,04,17,05,29,7.20
2021,04,17,05,30,7.20
2021,04,17,05,31,7.10
2021,04,17,05,32,7.10
2021,04,17,05,33,7.10
2021,04,17,05,34,7.10
2021,04,17,05,35,7.10
2021,04,17,05,36,7.10
2021,04,17,05,37,7.10
2021,04,17,05,38,7.10
2021,04,17,05,39,7.10
2021,04,17,05,40,7.10
2021,04,17,05,41,7.10
2021,04,17,05,42,7.10
2021,04,17,05,43,7.00
2021,04,17,05,44,7.00
2021,04,17,05,45,7.00
2021,04,17,05,46,7.00
2021,04,17,05,47,7.00
2021,04,17,05,48,7.00
2021,04,17,05,49,7.00
2021,04,17,05,50,7.00
2021,04,17,05,51,7.00
2021,04,17,05,52,7.00
2021,04,17,05,53,7.00
2021,04,17,05,54,7.00
2021,04,17,05,55,7.00
2021,04,17,05,56,7.00
2021,04,17,05,57,7.00
2021,04,17,05,58,7.00
2021,04,17,05,59,7.00
2021,04,17,06,00,7.00
2021,04,17,06,01,7.00
2021,04,17,06,02,6.90
2021,04,17,06,03,6.90
2021,04,17,06,04,6.90
2021,04,17,06,05,6.90
2021,04,17,06,06,6.80
2021,04,17,06,07,6.80
2021,04,17,06,08,6.80
2021,04,17,06,09,6.80
2021,04,17,06,10,6.80
2021,04,17,06,11,6.80
2021,04,17,06,12,6.80
2021,04,17,06,13,6.80
2021,04,17,06,14,6.80
2021,04,17,06,15,6.80
2021,04,17,06,16,6.80
2021,04,17,06,17,6.80
2021,04,17,06,18,6.80
2021,04,17,06,19,6.70
2021,04,17,06,20,6.70
2021,04,17,06,21,6.70
2021,04,17,06,22,6.70
2021,04,17,06,23,6.80
2021,04,17,06,24,6.80
2021,04,17,06,25,6.80
2021,04,17,06,26,6.80
2021,04,17,06,27,6.80
2021,04,17,06,28,6.80
2021,04,17,06,29,6.80
2021,04,17,06,30,6.80
2021,04,17,06,31,6.80
2021,04,17,06,32,6.70
2021,04,17,06,33,6.70
2021,04,17,06,34,6.70
2021,04,17,06,35,6.70
2021,04,17,06,36,6.70
2021,04,17,06,37,6.70
2021,04,17,06,38,6.70
2021,04,17,06,39,6.70
2021,04,17,06,40,6.60
2021,04,17,06,41,6.60
2021,04,17,06,42,6.60
2021,04,17,06,43,6.60
2021,04,17,06,44,6.60
2021,04,17,06,45,6.60
2021,04,17,06,46,6.60
2021,04,17,06,47,6.60
2021,04,17,06,48,6.60
2021,04,17,06,49,6.50
2021,04,17,06,50,6.50
2021,04,17,06,51,6.50
2021,04,17,06,52,6.50
2021,04,17,06,53,6.50
2021,04,17,06,54,6.50
2021,04,17,06,55,6.50
2021,04,17,06,56,6.50
2021,04,17,06,57,6.60
2021,04,17,06,58,6.60
2021,04,17,06,59,6.60
2021,04,17,07,00,6.60
2021,04,17,07,01,6.60
2021,04,17,07,02,6.60
2021,04,17,07,03,6.60
2021,04,17,07,04,6.60
2021,04,17,07,05,6.60
2021,04,17,07,06,6.60
2021,04,17,07,07,6.60
2021,04,17,07,08,6.60
2021,04,17,07,09,6.60
2021,04,17,07,10,6.60
2021,04,17,07,11,6.70
2021,04,17,07,12,6.70
2021,04,17,07,13,6.70
2021,04,17,07,14,6.80
2021,04,17,07,15,6.80
2021,04,17,07,16,6.80
2021,04,17,07,17,6.80
2021,04,17,07,18,6.90
2021,04,17,07,19,6.90
2021,04,17,07,20,6.90
2021,04,17,07,21,6.90
2021,04,17,07,22,6.90
2021,04,17,07,23,6.90
2021,04,17,07,24,6.90
2021,04,17,07,25,6.90
2021,04,17,07,26,6.90
2021,04,17,07,27,6.90
2021,04,17,07,28,6.90
2021,04,17,07,29,7.00
2021,04,17,07,30,7.00
2021,04,17,07,31,7.00
2021,04,17,07,32,7.10
2021,04,17,07,33,7.10
2021,04,17,07,34,7.10
2021,04,17,07,35,7.10
2021,04,17,07,36,7.20
2021,04,17,07,37,7.20
2021,04,17,07,38,7.20
2021,04,17,07,39,7.20
2021,04,17,07,40,7.20
2021,04,17,07,41,7.20
2021,04,17,07,42,7.20
2021,04,17,07,43,7.20
2021,04,17,07,44,7.20
2021,04,17,07,45,7.20
2021,04,17,07,46,7.30
2021,04,17,07,47,7.30
2021,04,17,07,48,7.30
2021,04,17,07,49,7.40
2021,04,17,07,50,7.40
2021,04,17,07,51,7.40
2021,04,17,07,52,7.50
2021,04,17,07,53,7.50
2021,04,17,07,54,7.60
2021,04,17,07,55,7.60
2021,04,17,07,56,7.60
2021,04,17,07,57,7.60
2021,04,17,07,58,7.70
2021,04,17,07,59,7.70
2021,04,17,08,00,7.70
2021,04,17,08,01,7.70
2021,04,17,08,02,7.80
2021,04,17,08,03,7.80
2021,04,17,08,04,7.80
2021,04,17,08,05,7.80
2021,04,17,08,06,7.80
2021,04,17,08,07,7.80
2021,04,17,08,08,7.80
2021,04,17,08,09,7.80
2021,04,17,08,10,7.90
2021,04,17,08,11,8.10
2021,04,17,08,12,8.20
2021,04,17,08,13,8.20
2021,04,17,08,14,8.30
2021,04,17,08,15,8.30
2021,04,17,08,16,8.40
2021,04,17,08,17,8.50
2021,04,17,08,18,8.50
2021,04,17,08,19,8.60
2021,04,17,08,20,8.60
2021,04,17,08,21,8.70
2021,04,17,08,22,8.80
2021,04,17,08,23,8.90
2021,04,17,08,24,9.00
2021,04,17,08,25,9.00
2021,04,17,08,26,9.10
2021,04,17,08,27,9.20
2021,04,17,08,28,9.20
2021,04,17,08,29,9.30
2021,04,17,08,30,9.30
2021,04,17,08,31,9.40
2021,04,17,08,32,9.50
2021,04,17,08,33,9.60
2021,04,17,08,34,9.60
2021,04,17,08,35,9.70
2021,04,17,08,36,9.70
2021,04,17,08,37,9.80
2021,04,17,08,38,9.90
2021,04,17,08,39,10.00
2021,04,17,08,40,10.00
2021,04,17,08,41,10.10
2021,04,17,08,42,10.20
2021,04,17,08,43,10.20
2021,04,17,08,44,10.30
2021,04,17,08,45,10.40
2021,04,17,08,46,10.50
2021,04,17,08,47,10.50
2021,04,17,08,48,10.60
2021,04,17,08,49,10.80
2021,04,17,08,50,10.90
2021,04,17,08,51,11.00
2021,04,17,08,52,11.10
2021,04,17,08,53,11.20
2021,04,17,08,54,11.40
2021,04,17,08,55,11.50
2021,04,17,08,56,11.60
2021,04,17,08,57,11.70
2021,04,17,08,58,11.80
2021,04,17,08,59,11.90
2021,04,17,09,00,12.00
2021,04,17,09,01,12.10
2021,04,17,09,02,12.20
2021,04,17,09,03,12.20
2021,04,17,09,04,12.30
2021,04,17,09,05,12.40
2021,04,17,09,06,12.50
2021,04,17,09,07,12.60
2021,04,17,09,08,12.60
2021,04,17,09,09,12.70
2021,04,17,09,10,12.80
2021,04,17,09,11,12.90
2021,04,17,09,12,13.00
2021,04,17,09,13,13.10
2021,04,17,09,14,13.20
2021,04,17,09,15,13.30
2021,04,17,09,16,13.40
2021,04,17,09,17,13.50
2021,04,17,09,18,13.60
2021,04,17,09,19,13.70
2021,04,17,09,20,13.70
2021,04,17,09,21,13.80
2021,04,17,09,22,13.90
2021,04,17,09,23,14.00
2021,04,17,09,24,14.10
2021,04,17,09,25,14.20
2021,04,17,09,26,14.30
2021,04,17,09,27,14.40
2021,04,17,09,28,14.50
2021,04,17,09,29,14.60
2021,04,17,09,30,14.70
2021,04,17,09,31,14.90
2021,04,17,09,32,15.00
2021,04,17,09,33,15.00
2021,04,17,09,34,15.10
2021,04,17,09,35,15.20
2021,04,17,09,36,15.40
2021,04,17,09,37,15.50
2021,04,17,09,38,15.60
2021,04,17,09,39,15.70
2021,04,17,09,40,15.80
2021,04,17,09,41,15.80
2021,04,17,09,42,15.90
2021,04,17,09,43,16.00
2021,04,17,09,44,16.10
2021,04,17,09,45,16.10
2021,04,17,09,46,16.20
2021,04,17,09,47,16.20
2021,04,17,09,48,16.30
2021,04,17,09,49,16.30
2021,04,17,09,50,16.40
2021,04,17,09,51,16.50
2021,04,17,09,52,16.60
2021,04,17,09,53,16.70
2021,04,17,09,54,16.80
2021,04,17,09,55,16.90
2021,04,17,09,56,16.90
2021,04,17,09,57,17.00
2021,04,17,09,58,17.10
2021,04,17,09,59,17.10
2021,04,17,10,00,17.20
2021,04,17,10,01,17.20
2021,04,17,10,02,17.30
2021,04,17,10,03,17.40
2021,04,17,10,04,17.40
2021,04,17,10,05,17.50
2021,04,17,10,06,17.50
2021,04,17,10,07,17.60
2021,04,17,10,08,17.70
2021,04,17,10,09,17.80
2021,04,17,10,10,17.90
2021,04,17,10,11,18.00
2021,04,17,10,12,18.10
2021,04,17,10,13,18.10
2021,04,17,10,14,18.20
2021,04,17,10,15,18.30
2021,04,17,10,16,18.40
2021,04,17,10,17,18.50
2021,04,17,10,18,18.50
2021,04,17,10,19,18.60
2021,04,17,10,20,18.70
2021,04,17,10,21,18.80
2021,04,17,10,22,18.80
2021,04,17,10,23,18.90
2021,04,17,10,24,19.00
2021,04,17,10,25,19.00
2021,04,17,10,26,19.10
2021,04,17,10,27,19.20
2021,04,17,10,28,19.20
2021,04,17,10,29,19.30
2021,04,17,10,30,19.30
2021,04,17,10,31,19.30
2021,04,17,10,32,19.40
2021,04,17,10,33,19.40
2021,04,17,10,34,19.50
2021,04,17,10,35,19.50
2021,04,17,10,36,19.60
2021,04,17,10,37,19.70
2021,04,17,10,38,19.70
2021,04,17,10,39,19.80
2021,04,17,10,40,19.80
2021,04,17,10,41,19.80
2021,04,17,10,42,19.80
2021,04,17,10,43,19.80
2021,04,17,10,44,19.80
2021,04,17,10,45,19.80
2021,04,17,10,46,19.90
2021,04,17,10,47,19.90
2021,04,17,10,48,19.80
2021,04,17,10,49,19.80
2021,04,17,10,50,19.80
2021,04,17,10,51,19.80
2021,04,17,10,52,19.80
2021,04,17,10,53,19.70
2021,04,17,10,54,19.70
2021,04,17,10,55,19.70
2021,04,17,10,56,19.70
2021,04,17,10,57,19.70
2021,04,17,10,58,19.80
2021,04,17,10,59,19.90
2021,04,17,11,00,20.00
2021,04,17,11,01,20.10
2021,04,17,11,02,20.20
2021,04,17,11,03,20.30
2021,04,17,11,04,20.30
2021,04,17,11,05,20.40
2021,04,17,11,06,20.50
2021,04,17,11,07,20.60
2021,04,17,11,08,20.70
2021,04,17,11,09,20.70
2021,04,17,11,10,20.80
2021,04,17,11,11,20.80
2021,04,17,11,12,20.80
2021,04,17,11,13,20.80
2021,04,17,11,14,20.80
2021,04,17,11,15,20.80
2021,04,17,11,16,20.70
2021,04,17,11,17,20.70
2021,04,17,11,18,20.80
2021,04,17,11,19,20.80
2021,04,17,11,20,20.80
2021,04,17,11,21,20.80
2021,04,17,11,22,20.80
2021,04,17,11,23,20.90
2021,04,17,11,24,20.90
2021,04,17,11,25,21.00
2021,04,17,11,26,21.00
2021,04,17,11,27,21.00
2021,04,17,11,28,21.00
2021,04,17,11,29,21.10
2021,04,17,11,30,21.10
2021,04,17,11,31,21.20
2021,04,17,11,32,21.20
2021,04,17,11,33,21.20
2021,04,17,11,34,21.30
2021,04,17,11,35,21.30
2021,04,17,11,36,21.40
2021,04,17,11,37,21.40
2021,04,17,11,38,21.50
2021,04,17,11,39,21.50
2021,04,17,11,40,21.60
2021,04,17,11,41,21.60
2021,04,17,11,42,21.60
2021,04,17,11,43,21.70
2021,04,17,11,44,21.70
2021,04,17,11,45,21.70
2021,04,17,11,46,21.80
2021,04,17,11,47,21.80
2021,04,17,11,48,21.80
2021,04,17,11,49,21.70
2021,04,17,11,50,21.70
2021,04,17,11,51,21.70
2021,04,17,11,52,21.80
2021,04,17,11,53,21.80
2021,04,17,11,54,21.80
2021,04,17,11,55,21.80
2021,04,17,11,56,21.90
2021,04,17,11,57,21.90
2021,04,17,11,58,22.00
2021,04,17,11,59,22.00
2021,04,17,12,00,22.10
2021,04,17,12,01,22.10
2021,04,17,12,02,22.10
2021,04,17,12,03,22.10
2021,04,17,12,04,22.20
2021,04,17,12,05,22.20
2021,04,17,12,06,22.20
2021,04,17,12,07,22.20
2021,04,17,12,08,22.20
2021,04,17,12,09,22.20
2021,04,17,12,10,22.20
2021,04,17,12,11,22.20
2021,04,17,12,12,22.20
2021,04,17,12,13,22.20
2021,04,17,12,14,22.20
2021,04,17,12,15,22.20
2021,04,17,12,16,22.30
2021,04,17,12,17,22.30
2021,04,17,12,18,22.30
2021,04,17,12,19,22.40
2021,04,17,12,20,22.40
2021,04,17,12,21,22.30
2021,04,17,12,22,22.30
2021,04,17,12,23,22.30
2021,04,17,12,24,22.20
2021,04,17,12,25,22.20
2021,04,17,12,26,22.20
2021,04,17,12,27,22.30
2021,04,17,12,28,22.30
2021,04,17,12,29,22.40
2021,04,17,12,30,22.50
2021,04,17,12,31,22.50
2021,04,17,12,32,22.60
2021,04,17,12,33,22.60
2021,04,17,12,34,22.60
2021,04,17,12,35,22.70
2021,04,17,12,36,22.70
2021,04,17,12,37,22.70
2021,04,17,12,38,22.70
2021,04,17,12,39,22.80
2021,04,17,12,40,22.80
2021,04,17,12,41,22.80
2021,04,17,12,42,22.70
2021,04,17,12,43,22.60
2021,04,17,12,44,22.50
2021,04,17,12,45,22.30
2021,04,17,12,46,22.20
2021,04,17,12,47,22.10
2021,04,17,12,48,22.10
2021,04,17,12,49,22.10
2021,04,17,12,50,22.10
2021,04,17,12,51,22.10
2021,04,17,12,52,22.10
2021,04,17,12,53,22.20
2021,04,17,12,54,22.20
2021,04,17,12,55,22.30
2021,04,17,12,56,22.40
2021,04,17,12,57,22.50
2021,04,17,12,58,22.60
2021,04,17,12,59,22.60
2021,04,17,13,00,22.70
2021,04,17,13,01,22.80
2021,04,17,13,02,22.90
2021,04,17,13,03,23.00
2021,04,17,13,04,23.10
2021,04,17,13,05,23.20
2021,04,17,13,06,23.30
2021,04,17,13,07,23.30
2021,04,17,13,08,23.40
2021,04,17,13,09,23.50
2021,04,17,13,10,23.50
2021,04,17,13,11,23.60
2021,04,17,13,12,23.70
2021,04,17,13,13,23.70
2021,04,17,13,14,23.80
2021,04,17,13,15,23.80
2021,04,17,13,16,23.80
2021,04,17,13,17,23.90
2021,04,17,13,18,23.90
2021,04,17,13,19,23.90
2021,04,17,13,20,23.90
2021,04,17,13,21,23.90
2021,04,17,13,22,23.90
2021,04,17,13,23,23.90
2021,04,17,13,24,23.90
2021,04,17,13,25,23.90
2021,04,17,13,26,23.90
2021,04,17,13,27,23.90
2021,04,17,13,28,24.00
2021,04,17,13,29,24.00
2021,04,17,13,30,24.10
2021,04,17,13,31,24.10
2021,04,17,13,32,24.10
2021,04,17,13,33,24.10
2021,04,17,13,34,24.10
2021,04,17,13,35,24.20
2021,04,17,13,36,24.20
2021,04,17,13,37,24.20
2021,04,17,13,38,24.20
2021,04,17,13,39,24.20
2021,04,17,13,40,24.30
2021,04,17,13,41,24.30
2021,04,17,13,42,24.30
2021,04,17,13,43,24.40
2021,04,17,13,44,24.40
2021,04,17,13,45,24.50
2021,04,17,13,46,24.50
2021,04,17,13,47,24.60
2021,04,17,13,48,24.60
2021,04,17,13,49,24.60
2021,04,17,13,50,24.70
2021,04,17,13,51,24.70
2021,04,17,13,52,24.70
2021,04,17,13,53,24.70
2021,04,17,13,54,24.60
2021,04,17,13,55,24.60
2021,04,17,13,56,24.70
2021,04,17,13,57,24.70
2021,04,17,13,58,24.70
2021,04,17,13,59,24.70
2021,04,17,14,00,24.70
2021,04,17,14,01,24.80
2021,04,17,14,02,24.80
2021,04,17,14,03,24.80
2021,04,17,14,04,24.80
2021,04,17,14,05,24.80
2021,04,17,14,06,24.80
2021,04,17,14,07,24.80
2021,04,17,14,08,24.70
2021,04,17,14,09,24.70
2021,04,17,14,10,24.70
2021,04,17,14,11,24.70
2021,04,17,14,12,24.70
2021,04,17,14,13,24.80
2021,04,17,14,14,24.80
2021,04,17,14,15,24.80
2021,04,17,14,16,24.80
2021,04,17,14,17,24.80
2021,04,17,14,18,24.90
2021,04,17,14,19,24.90
2021,04,17,14,20,24.90
2021,04,17,14,21,24.90
2021,04,17,14,22,25.00
2021,04,17,14,23,25.00
2021,04,17,14,24,24.90
2021,04,17,14,25,24.90
2021,04,17,14,26,24.80
2021,04,17,14,27,24.70
2021,04,17,14,28,24.60
2021,04,17,14,29,24.60
2021,04,17,14,30,24.50
2021,04,17,14,31,24.50
2021,04,17,14,32,24.60
2021,04,17,14,33,24.60
2021,04,17,14,34,24.70
2021,04,17,14,35,24.70
2021,04,17,14,36,24.80
2021,04,17,14,37,24.80
2021,04,17,14,38,24.80
2021,04,17,14,39,24.90
2021,04,17,14,40,24.90
2021,04,17,14,41,24.90
2021,04,17,14,42,24.90
2021,04,17,14,43,25.00
2021,04,17,14,44,25.10
2021,04,17,14,45,25.10
2021,04,17,14,46,25.20
2021,04,17,14,47,25.30
2021,04,17,14,48,25.30
2021,04,17,14,49,25.40
2021,04,17,14,50,25.40
2021,04,17,14,51,25.40
2021,04,17,14,52,25.40
2021,04,17,14,53,25.40
2021,04,17,14,54,25.50
2021,04,17,14,55,25.50
2021,04,17,14,56,25.60
2021,04,17,14,57,25.60
2021,04,17,14,58,25.60
2021,04,17,14,59,25.70
2021,04,17,15,00,25.60
2021,04,17,15,01,25.60
2021,04,17,15,02,25.60
2021,04,17,15,03,25.60
2021,04,17,15,04,25.70
2021,04,17,15,05,25.70
2021,04,17,15,06,25.80
2021,04,17,15,07,25.80
2021,04,17,15,08,25.90
2021,04,17,15,09,25.90
2021,04,17,15,10,25.90
2021,04,17,15,11,26.00
2021,04,17,15,12,26.00
2021,04,17,15,13,26.10
2021,04,17,15,14,26.10
2021,04,17,15,15,26.20
2021,04,17,15,16,26.20
2021,04,17,15,17,26.20
2021,04,17,15,18,26.20
2021,04,17,15,19,26.10
2021,04,17,15,20,26.10
2021,04,17,15,21,26.10
2021,04,17,15,22,26.00
2021,04,17,15,23,25.90
2021,04,17,15,24,25.90
2021,04,17,15,25,25.90
2021,04,17,15,26,25.90
2021,04,17,15,27,25.90
2021,04,17,15,28,25.90
2021,04,17,15,29,25.90
2021,04,17,15,30,25.90
2021,04,17,15,31,25.90
2021,04,17,15,32,25.90
2021,04,17,15,33,25.90
2021,04,17,15,34,25.90
2021,04,17,15,35,25.90
2021,04,17,15,36,25.80
2021,04,17,15,37,25.80
2021,04,17,15,38,25.80
2021,04,17,15,39,25.80
2021,04,17,15,40,25.80
2021,04,17,15,41,25.80
2021,04,17,15,42,25.90
2021,04,17,15,43,25.90
2021,04,17,15,44,25.90
2021,04,17,15,45,25.90
2021,04,17,15,46,25.90
2021,04,17,15,47,25.90
2021,04,17,15,48,25.90
2021,04,17,15,49,25.90
2021,04,17,15,50,25.90
2021,04,17,15,51,25.90
2021,04,17,15,52,25.90
2021,04,17,15,53,25.90
2021,04,17,15,54,25.90
2021,04,17,15,55,25.90
2021,04,17,15,56,25.90
2021,04,17,15,57,25.90
2021,04,17,15,58,25.90
2021,04,17,15,59,25.90
2021,04,17,16,00,25.90
2021,04,17,16,01,25.90
2021,04,17,16,02,25.90
2021,04,17,16,03,25.90
2021,04,17,16,04,25.90
2021,04,17,16,05,25.90
2021,04,17,16,06,25.90
2021,04,17,16,07,25.90
2021,04,17,16,08,25.90
2021,04,17,16,09,25.90
2021,04,17,16,10,26.00
2021,04,17,16,11,26.10
2021,04,17,16,12,26.00
2021,04,17,16,13,25.90
2021,04,17,16,14,25.70
2021,04,17,16,15,25.70
2021,04,17,16,16,25.70
2021,04,17,16,17,25.70
2021,04,17,16,18,25.70
2021,04,17,16,19,25.70
2021,04,17,16,20,25.70
2021,04,17,16,21,25.60
2021,04,17,16,22,25.50
2021,04,17,16,23,25.50
2021,04,17,16,24,25.40
2021,04,17,16,25,25.30
2021,04,17,16,26,25.30
2021,04,17,16,27,25.30
2021,04,17,16,28,25.20
2021,04,17,16,29,25.20
2021,04,17,16,30,25.20
2021,04,17,16,31,25.20
2021,04,17,16,32,25.20
2021,04,17,16,33,25.20
2021,04,17,16,34,25.30
2021,04,17,16,35,25.40
2021,04,17,16,36,25.40
2021,04,17,16,37,25.50
2021,04,17,16,38,25.60
2021,04,17,16,39,25.70
2021,04,17,16,40,25.70
2021,04,17,16,41,25.70
2021,04,17,16,42,25.70
2021,04,17,16,43,25.70
2021,04,17,16,44,25.70
2021,04,17,16,45,25.70
2021,04,17,16,46,25.80
2021,04,17,16,47,25.80
2021,04,17,16,48,25.90
2021,04,17,16,49,25.90
2021,04,17,16,50,25.90
2021,04,17,16,51,25.90
2021,04,17,16,52,25.70
2021,04,17,16,53,25.70
2021,04,17,16,54,25.60
2021,04,17,16,55,25.50
2021,04,17,16,56,25.40
2021,04,17,16,57,25.40
2021,04,17,16,58,25.50
2021,04,17,16,59,25.40
2021,04,17,17,00,25.30
2021,04,17,17,01,25.20
2021,04,17,17,02,25.10
2021,04,17,17,03,25.10
2021,04,17,17,04,25.10
2021,04,17,17,05,25.10
2021,04,17,17,06,25.20
2021,04,17,17,07,25.30
2021,04,17,17,08,25.30
2021,04,17,17,09,25.40
2021,04,17,17,10,25.50
2021,04,17,17,11,25.60
2021,04,17,17,12,25.70
2021,04,17,17,13,25.80
2021,04,17,17,14,25.80
2021,04,17,17,15,25.90
2021,04,17,17,16,25.90
2021,04,17,17,17,25.90
2021,04,17,17,18,25.90
2021,04,17,17,19,25.90
2021,04,17,17,20,25.90
2021,04,17,17,21,25.90
2021,04,17,17,22,25.90
2021,04,17,17,23,25.90
2021,04,17,17,24,25.90
2021,04,17,17,25,26.00
2021,04,17,17,26,26.10
2021,04,17,17,27,26.10
2021,04,17,17,28,26.10
2021,04,17,17,29,26.10
2021,04,17,17,30,26.10
2021,04,17,17,31,26.10
2021,04,17,17,32,26.10
2021,04,17,17,33,26.20
2021,04,17,17,34,26.20
2021,04,17,17,35,26.20
2021,04,17,17,36,26.30
2021,04,17,17,37,26.30
2021,04,17,17,38,26.20
2021,04,17,17,39,26.20
2021,04,17,17,40,26.20